MWI035 FVRG-FLKK

Flight info

Callsign MWI035
Flight time 1h 5m
Altitude 22000
Route UMVUL UMVUL1A
Aircraft AT76/M-SABDFGIRWY/SB2

Departure

Time 2026-05-09 10:34
Airport Robert Gabriel Mugabe International Airport (FVRG)

Arrival

Time 2026-05-09 11:39
Airport Kenneth Kaunda International Airport (FLKK)
Time Latitude Longitude Altitude Speed Heading
2026-05-09 10:13 -17.91939 31.09736 4893 ft 0 kts 45°
2026-05-09 10:25 -17.91939 31.09737 4893 ft 1 kts 49°
2026-05-09 10:25 -17.91950 31.09747 4888 ft 4 kts 184°
2026-05-09 10:25 -17.91992 31.09714 4890 ft 10 kts 216°
2026-05-09 10:26 -17.92033 31.09699 4891 ft 3 kts 142°
2026-05-09 10:26 -17.92055 31.09722 4889 ft 8 kts 135°
2026-05-09 10:26 -17.92111 31.09781 4889 ft 14 kts 135°
2026-05-09 10:26 -17.92173 31.09851 4890 ft 12 kts 131°
2026-05-09 10:27 -17.92225 31.09908 4889 ft 10 kts 135°
2026-05-09 10:27 -17.92273 31.09945 4892 ft 8 kts 169°
2026-05-09 10:27 -17.92321 31.09917 4889 ft 9 kts 223°
2026-05-09 10:27 -17.92376 31.09860 4884 ft 13 kts 227°
2026-05-09 10:28 -17.92444 31.09787 4888 ft 15 kts 224°
2026-05-09 10:28 -17.92521 31.09712 4884 ft 15 kts 222°
2026-05-09 10:28 -17.92595 31.09630 4881 ft 16 kts 227°
2026-05-09 10:28 -17.92676 31.09547 4883 ft 17 kts 223°
2026-05-09 10:29 -17.92756 31.09461 4881 ft 16 kts 228°
2026-05-09 10:29 -17.92836 31.09375 4880 ft 17 kts 224°
2026-05-09 10:29 -17.92921 31.09292 4878 ft 17 kts 221°
2026-05-09 10:29 -17.93004 31.09205 4876 ft 17 kts 225°
2026-05-09 10:30 -17.93088 31.09115 4873 ft 17 kts 224°
2026-05-09 10:30 -17.93184 31.09040 4871 ft 17 kts 198°
2026-05-09 10:30 -17.93288 31.09011 4873 ft 14 kts 196°
2026-05-09 10:30 -17.93372 31.08983 4875 ft 12 kts 197°
2026-05-09 10:31 -17.93448 31.08978 4873 ft 9 kts 135°
2026-05-09 10:31 -17.93439 31.09023 4874 ft 5 kts 47°
2026-05-09 10:31 -17.93429 31.09035 4877 ft 0 kts 46°
2026-05-09 10:33 -17.93365 31.09104 4878 ft 36 kts 45°
2026-05-09 10:33 -17.93065 31.09416 4884 ft 84 kts 45°
2026-05-09 10:33 -17.92553 31.09949 4893 ft 122 kts 46°
2026-05-09 10:33 -17.91891 31.10618 5070 ft 137 kts 48°
2026-05-09 10:34 -17.91190 31.11361 5330 ft 150 kts 42°
2026-05-09 10:34 -17.89238 31.11787 5738 ft 187 kts 319°
2026-05-09 10:34 -17.88212 31.10870 5809 ft 200 kts 318°
2026-05-09 10:35 -17.87521 31.09643 6328 ft 194 kts 292°
2026-05-09 10:35 -17.86987 31.08380 6855 ft 185 kts 300°
2026-05-09 10:35 -17.86409 31.07194 7347 ft 182 kts 299°
2026-05-09 10:35 -17.85820 31.05994 7675 ft 190 kts 299°
2026-05-09 10:36 -17.85123 31.04805 8001 ft 194 kts 307°
2026-05-09 10:36 -17.84313 31.03689 8384 ft 195 kts 309°
2026-05-09 10:36 -17.83479 31.02542 8785 ft 196 kts 307°
2026-05-09 10:36 -17.82688 31.01382 9170 ft 197 kts 305°
2026-05-09 10:37 -17.81938 31.00198 9558 ft 198 kts 303°
2026-05-09 10:37 -17.81196 30.98979 9948 ft 199 kts 303°
2026-05-09 10:37 -17.80450 30.97740 10339 ft 200 kts 302°
2026-05-09 10:37 -17.79718 30.96494 10700 ft 201 kts 301°
2026-05-09 10:38 -17.78979 30.95248 11061 ft 202 kts 302°
2026-05-09 10:38 -17.78224 30.93993 11416 ft 203 kts 302°
2026-05-09 10:38 -17.77467 30.92743 11774 ft 205 kts 301°
2026-05-09 10:38 -17.76688 30.91455 11942 ft 216 kts 301°
2026-05-09 10:39 -17.75871 30.90106 12244 ft 219 kts 301°
2026-05-09 10:39 -17.75049 30.88757 12594 ft 220 kts 301°
2026-05-09 10:39 -17.74222 30.87403 12943 ft 220 kts 301°
2026-05-09 10:39 -17.73411 30.86066 13427 ft 213 kts 300°
2026-05-09 10:40 -17.72628 30.84781 13952 ft 206 kts 300°
2026-05-09 10:40 -17.71868 30.83528 14284 ft 206 kts 300°
2026-05-09 10:40 -17.71095 30.82258 14598 ft 206 kts 300°
2026-05-09 10:40 -17.70312 30.80973 14903 ft 206 kts 300°
2026-05-09 10:41 -17.69555 30.79725 15121 ft 206 kts 301°
2026-05-09 10:41 -17.68779 30.78454 15301 ft 207 kts 300°
2026-05-09 10:41 -17.68005 30.77178 15534 ft 207 kts 301°
2026-05-09 10:41 -17.67224 30.75904 15798 ft 207 kts 301°
2026-05-09 10:42 -17.66450 30.74631 16105 ft 207 kts 301°
2026-05-09 10:42 -17.65669 30.73347 16340 ft 210 kts 301°
2026-05-09 10:42 -17.64879 30.72051 16607 ft 211 kts 301°
2026-05-09 10:42 -17.64091 30.70757 16874 ft 211 kts 301°
2026-05-09 10:43 -17.63295 30.69455 17149 ft 211 kts 301°
2026-05-09 10:43 -17.62503 30.68154 17411 ft 212 kts 301°
2026-05-09 10:43 -17.61709 30.66855 17672 ft 212 kts 301°
2026-05-09 10:43 -17.60913 30.65554 17923 ft 213 kts 301°
2026-05-09 10:44 -17.60385 30.64687 18092 ft 213 kts 301°
2026-05-09 10:44 -17.59327 30.62954 18411 ft 213 kts 301°
2026-05-09 10:44 -17.58525 30.61640 18629 ft 214 kts 301°
2026-05-09 10:44 -17.57723 30.60327 18820 ft 214 kts 301°
2026-05-09 10:45 -17.56924 30.59015 19016 ft 214 kts 301°
2026-05-09 10:46 -17.53964 30.54167 19706 ft 215 kts 301°
2026-05-09 10:46 -17.53163 30.52857 19887 ft 216 kts 301°
2026-05-09 10:46 -17.52351 30.51532 20053 ft 216 kts 301°
2026-05-09 10:46 -17.51538 30.50204 20225 ft 216 kts 301°
2026-05-09 10:47 -17.50725 30.48876 20394 ft 216 kts 301°
2026-05-09 10:47 -17.49912 30.47546 20548 ft 217 kts 301°
2026-05-09 10:47 -17.49107 30.46233 20715 ft 217 kts 301°
2026-05-09 10:47 -17.48283 30.44886 20877 ft 217 kts 301°
2026-05-09 10:48 -17.47476 30.43570 21031 ft 217 kts 300°
2026-05-09 10:48 -17.46658 30.42234 21183 ft 218 kts 301°
2026-05-09 10:48 -17.45839 30.40899 21338 ft 218 kts 301°
2026-05-09 10:48 -17.45018 30.39559 21478 ft 218 kts 301°
2026-05-09 10:49 -17.44196 30.38217 21560 ft 221 kts 301°
2026-05-09 10:49 -17.43354 30.36842 21622 ft 225 kts 301°
2026-05-09 10:49 -17.42511 30.35467 21738 ft 225 kts 301°
2026-05-09 10:49 -17.41674 30.34099 21856 ft 225 kts 301°
2026-05-09 10:50 -17.40820 30.32709 21997 ft 224 kts 301°
2026-05-09 10:50 -17.39985 30.31346 22100 ft 225 kts 301°
2026-05-09 10:50 -17.39135 30.29960 22139 ft 228 kts 301°
2026-05-09 10:50 -17.38271 30.28555 22157 ft 232 kts 301°
2026-05-09 10:51 -17.37392 30.27121 22166 ft 235 kts 301°
2026-05-09 10:51 -17.36504 30.25674 22170 ft 239 kts 301°
2026-05-09 10:51 -17.35599 30.24200 22173 ft 241 kts 301°
2026-05-09 10:51 -17.34685 30.22710 22172 ft 244 kts 301°
2026-05-09 10:52 -17.33765 30.21213 22169 ft 246 kts 301°
2026-05-09 10:52 -17.32835 30.19699 22167 ft 247 kts 301°
2026-05-09 10:52 -17.31900 30.18177 22162 ft 249 kts 301°
2026-05-09 10:52 -17.30974 30.16672 22164 ft 250 kts 301°
2026-05-09 10:53 -17.30022 30.15123 22164 ft 251 kts 301°
2026-05-09 10:53 -17.29077 30.13587 22164 ft 251 kts 301°
2026-05-09 10:53 -17.28139 30.12064 22157 ft 252 kts 301°
2026-05-09 10:53 -17.27187 30.10514 22162 ft 253 kts 301°
2026-05-09 10:54 -17.26235 30.08966 22154 ft 253 kts 301°
2026-05-09 10:54 -17.25278 30.07413 22155 ft 254 kts 301°
2026-05-09 10:54 -17.24323 30.05862 22158 ft 254 kts 301°
2026-05-09 10:54 -17.23371 30.04314 22153 ft 251 kts 301°
2026-05-09 10:55 -17.22437 30.02798 22151 ft 248 kts 301°
2026-05-09 10:55 -17.21505 30.01288 22152 ft 245 kts 301°
2026-05-09 10:55 -17.20585 29.99793 22148 ft 242 kts 301°
2026-05-09 10:55 -17.19677 29.98320 22143 ft 241 kts 301°
2026-05-09 10:56 -17.18783 29.96871 22145 ft 239 kts 301°
2026-05-09 10:56 -17.17886 29.95416 22150 ft 237 kts 301°
2026-05-09 10:56 -17.16987 29.93959 22139 ft 236 kts 301°
2026-05-09 10:56 -17.16099 29.92519 22140 ft 235 kts 301°
2026-05-09 10:57 -17.15214 29.91083 22146 ft 234 kts 301°
2026-05-09 10:57 -17.14327 29.89648 22154 ft 236 kts 301°
2026-05-09 10:57 -17.13435 29.88202 22150 ft 238 kts 301°
2026-05-09 10:57 -17.12529 29.86733 22151 ft 241 kts 301°
2026-05-09 10:58 -17.11624 29.85274 22080 ft 232 kts 301°
2026-05-09 10:58 -17.10745 29.83878 21996 ft 228 kts 301°
2026-05-09 10:58 -17.09893 29.82507 21993 ft 228 kts 301°
2026-05-09 10:58 -17.09025 29.81109 21987 ft 229 kts 301°
2026-05-09 10:59 -17.08161 29.79713 21980 ft 229 kts 301°
2026-05-09 10:59 -17.07301 29.78324 21976 ft 229 kts 301°
2026-05-09 10:59 -17.06434 29.76921 21976 ft 228 kts 301°
2026-05-09 10:59 -17.05567 29.75521 21974 ft 228 kts 301°
2026-05-09 11:00 -17.04718 29.74147 21973 ft 228 kts 301°
2026-05-09 11:00 -17.03854 29.72753 21970 ft 228 kts 301°
2026-05-09 11:00 -17.02992 29.71360 21965 ft 228 kts 301°
2026-05-09 11:00 -17.02132 29.69972 21968 ft 228 kts 301°
2026-05-09 11:01 -17.01269 29.68580 21973 ft 228 kts 301°
2026-05-09 11:01 -17.00411 29.67187 21977 ft 228 kts 301°
2026-05-09 11:01 -16.99549 29.65793 21981 ft 228 kts 301°
2026-05-09 11:01 -16.98686 29.64410 21985 ft 230 kts 301°
2026-05-09 11:02 -16.97795 29.62989 21995 ft 235 kts 301°
2026-05-09 11:02 -16.96907 29.61563 22004 ft 238 kts 301°
2026-05-09 11:02 -16.96001 29.60076 22036 ft 239 kts 300°
2026-05-09 11:02 -16.95111 29.58625 22075 ft 240 kts 301°
2026-05-09 11:03 -16.94202 29.57159 22120 ft 241 kts 301°
2026-05-09 11:03 -16.93287 29.55691 22163 ft 241 kts 301°
2026-05-09 11:03 -16.92373 29.54223 22208 ft 242 kts 301°
2026-05-09 11:03 -16.91454 29.52746 22245 ft 242 kts 301°
2026-05-09 11:04 -16.90536 29.51267 22296 ft 242 kts 301°
2026-05-09 11:04 -16.89620 29.49792 22327 ft 242 kts 301°
2026-05-09 11:04 -16.88714 29.48330 22370 ft 242 kts 301°
2026-05-09 11:04 -16.87795 29.46850 22407 ft 242 kts 301°
2026-05-09 11:05 -16.86879 29.45376 22452 ft 242 kts 301°
2026-05-09 11:05 -16.85961 29.43899 22488 ft 242 kts 301°
2026-05-09 11:05 -16.85046 29.42426 22533 ft 242 kts 301°
2026-05-09 11:05 -16.84129 29.40948 22551 ft 242 kts 301°
2026-05-09 11:06 -16.83214 29.39461 22551 ft 244 kts 301°
2026-05-09 11:06 -16.82303 29.37969 22550 ft 245 kts 301°
2026-05-09 11:06 -16.81378 29.36469 22545 ft 246 kts 301°
2026-05-09 11:06 -16.80450 29.34971 22448 ft 250 kts 301°
2026-05-09 11:07 -16.79497 29.33437 22318 ft 255 kts 301°
2026-05-09 11:07 -16.78521 29.31869 22198 ft 259 kts 301°
2026-05-09 11:07 -16.77535 29.30287 22132 ft 260 kts 301°
2026-05-09 11:07 -16.76553 29.28709 22107 ft 260 kts 301°
2026-05-09 11:08 -16.75563 29.27121 22093 ft 260 kts 301°
2026-05-09 11:08 -16.74574 29.25536 22081 ft 259 kts 301°
2026-05-09 11:08 -16.73595 29.23964 22072 ft 259 kts 301°
2026-05-09 11:08 -16.72618 29.22391 22069 ft 258 kts 301°
2026-05-09 11:09 -16.71640 29.20826 22068 ft 258 kts 301°
2026-05-09 11:09 -16.70662 29.19257 22065 ft 257 kts 301°
2026-05-09 11:09 -16.69684 29.17688 22061 ft 257 kts 301°
2026-05-09 11:09 -16.68724 29.16146 22054 ft 257 kts 301°
2026-05-09 11:10 -16.67750 29.14587 22056 ft 256 kts 301°
2026-05-09 11:10 -16.66778 29.13032 22057 ft 256 kts 301°
2026-05-09 11:10 -16.65807 29.11474 22052 ft 256 kts 302°
2026-05-09 11:10 -16.64832 29.09913 22050 ft 256 kts 301°
2026-05-09 11:11 -16.63866 29.08365 22047 ft 255 kts 302°
2026-05-09 11:11 -16.62898 29.06814 22046 ft 255 kts 302°
2026-05-09 11:11 -16.61930 29.05264 22051 ft 255 kts 301°
2026-05-09 11:11 -16.60953 29.03704 22041 ft 256 kts 301°
2026-05-09 11:12 -16.59985 29.02153 22033 ft 255 kts 302°
2026-05-09 11:12 -16.59016 29.00602 22040 ft 255 kts 302°
2026-05-09 11:12 -16.58047 28.99051 22035 ft 255 kts 302°
2026-05-09 11:12 -16.57091 28.97521 22033 ft 255 kts 301°
2026-05-09 11:13 -16.56119 28.95970 22032 ft 255 kts 301°
2026-05-09 11:13 -16.55146 28.94417 22032 ft 256 kts 302°
2026-05-09 11:13 -16.54176 28.92863 22028 ft 257 kts 302°
2026-05-09 11:13 -16.53197 28.91300 22015 ft 257 kts 301°
2026-05-09 11:14 -16.52221 28.89733 22016 ft 256 kts 302°
2026-05-09 11:14 -16.51220 28.88204 22014 ft 254 kts 310°
2026-05-09 11:14 -16.49821 28.87072 22015 ft 257 kts 324°
2026-05-09 11:14 -16.48299 28.86089 22009 ft 257 kts 325°
2026-05-09 11:15 -16.46779 28.85095 22016 ft 258 kts 324°
2026-05-09 11:15 -16.45311 28.84061 22012 ft 258 kts 322°
2026-05-09 11:15 -16.43860 28.82981 21889 ft 257 kts 322°
2026-05-09 11:15 -16.42392 28.81889 21604 ft 261 kts 322°
2026-05-09 11:16 -16.40911 28.80773 21342 ft 264 kts 321°
2026-05-09 11:16 -16.39413 28.79642 21078 ft 267 kts 322°
2026-05-09 11:16 -16.37893 28.78504 20805 ft 271 kts 322°
2026-05-09 11:16 -16.36340 28.77339 20499 ft 275 kts 322°
2026-05-09 11:17 -16.34788 28.76185 20191 ft 279 kts 322°
2026-05-09 11:17 -16.33183 28.74996 19885 ft 282 kts 323°
2026-05-09 11:17 -16.31595 28.73821 19586 ft 285 kts 323°
2026-05-09 11:17 -16.29971 28.72622 19286 ft 287 kts 323°
2026-05-09 11:18 -16.28346 28.71420 18985 ft 288 kts 323°
2026-05-09 11:18 -16.26699 28.70204 18617 ft 289 kts 323°
2026-05-09 11:18 -16.25062 28.68993 18260 ft 289 kts 323°
2026-05-09 11:18 -16.23429 28.67784 17855 ft 289 kts 323°
2026-05-09 11:19 -16.21776 28.66566 17438 ft 288 kts 323°
2026-05-09 11:19 -16.20132 28.65361 17020 ft 288 kts 323°
2026-05-09 11:19 -16.18504 28.64155 16629 ft 288 kts 323°
2026-05-09 11:19 -16.16868 28.62942 16232 ft 288 kts 323°
2026-05-09 11:20 -16.15257 28.61755 15864 ft 288 kts 323°
2026-05-09 11:20 -16.13622 28.60548 15482 ft 288 kts 323°
2026-05-09 11:20 -16.11977 28.59334 15096 ft 289 kts 324°
2026-05-09 11:20 -16.10333 28.58122 14727 ft 289 kts 323°
2026-05-09 11:21 -16.08707 28.56919 14354 ft 290 kts 324°
2026-05-09 11:21 -16.07056 28.55702 13999 ft 291 kts 324°
2026-05-09 11:21 -16.05419 28.54482 13612 ft 287 kts 324°
2026-05-09 11:21 -16.03796 28.53297 13204 ft 283 kts 325°
2026-05-09 11:22 -16.02192 28.52123 12805 ft 280 kts 324°
2026-05-09 11:22 -16.00606 28.50957 12401 ft 277 kts 324°
2026-05-09 11:22 -15.99041 28.49806 12032 ft 275 kts 324°
2026-05-09 11:22 -15.97515 28.48684 11805 ft 267 kts 324°
2026-05-09 11:23 -15.96038 28.47594 11643 ft 258 kts 324°
2026-05-09 11:23 -15.94579 28.46524 11470 ft 252 kts 324°
2026-05-09 11:23 -15.93167 28.45483 11297 ft 246 kts 324°
2026-05-09 11:23 -15.91785 28.44466 11150 ft 242 kts 324°
2026-05-09 11:24 -15.90415 28.43458 10998 ft 239 kts 324°
2026-05-09 11:24 -15.89069 28.42467 10839 ft 236 kts 324°
2026-05-09 11:24 -15.87731 28.41488 10682 ft 234 kts 324°
2026-05-09 11:24 -15.86407 28.40512 10529 ft 232 kts 325°
2026-05-09 11:25 -15.85093 28.39549 10376 ft 231 kts 324°
2026-05-09 11:25 -15.83784 28.38585 10221 ft 230 kts 324°
2026-05-09 11:25 -15.82480 28.37627 10071 ft 229 kts 324°
2026-05-09 11:25 -15.81181 28.36675 9911 ft 228 kts 325°
2026-05-09 11:26 -15.79896 28.35730 9755 ft 228 kts 325°
2026-05-09 11:26 -15.78599 28.34778 9577 ft 229 kts 325°
2026-05-09 11:26 -15.77296 28.33819 9390 ft 229 kts 325°
2026-05-09 11:26 -15.75992 28.32863 9216 ft 229 kts 325°
2026-05-09 11:27 -15.74703 28.31918 9175 ft 224 kts 326°
2026-05-09 11:27 -15.73461 28.31012 9181 ft 219 kts 326°
2026-05-09 11:27 -15.72229 28.30104 9165 ft 215 kts 325°
2026-05-09 11:27 -15.71016 28.29212 9165 ft 211 kts 326°
2026-05-09 11:28 -15.69832 28.28344 9161 ft 207 kts 326°
2026-05-09 11:28 -15.68656 28.27482 9175 ft 205 kts 326°
2026-05-09 11:28 -15.67491 28.26629 9169 ft 203 kts 326°
2026-05-09 11:28 -15.66352 28.25794 9178 ft 202 kts 325°
2026-05-09 11:29 -15.65183 28.24936 9176 ft 205 kts 326°
2026-05-09 11:29 -15.64015 28.24080 9172 ft 206 kts 326°
2026-05-09 11:29 -15.62854 28.23228 9170 ft 208 kts 326°
2026-05-09 11:29 -15.61666 28.22359 9170 ft 209 kts 326°
2026-05-09 11:30 -15.60482 28.21489 9173 ft 210 kts 325°
2026-05-09 11:30 -15.59286 28.20614 9178 ft 211 kts 325°
2026-05-09 11:30 -15.58085 28.19734 9179 ft 211 kts 325°
2026-05-09 11:30 -15.56872 28.18843 9176 ft 212 kts 326°
2026-05-09 11:31 -15.55539 28.18302 9157 ft 208 kts 360°
2026-05-09 11:31 -15.54106 28.18506 9104 ft 212 kts 13°
2026-05-09 11:31 -15.52649 28.18901 8869 ft 223 kts 16°
2026-05-09 11:31 -15.51125 28.19356 8630 ft 232 kts 17°
2026-05-09 11:32 -15.49551 28.19824 8403 ft 239 kts 16°
2026-05-09 11:32 -15.47930 28.20273 8170 ft 243 kts 15°
2026-05-09 11:32 -15.46276 28.20705 7931 ft 246 kts 15°
2026-05-09 11:32 -15.44597 28.21134 7699 ft 249 kts 15°
2026-05-09 11:33 -15.42913 28.21550 7479 ft 250 kts 15°
2026-05-09 11:33 -15.41216 28.21962 7248 ft 251 kts 15°
2026-05-09 11:33 -15.37823 28.22811 6780 ft 252 kts 16°
2026-05-09 11:34 -15.36131 28.23254 6553 ft 248 kts 16°
2026-05-09 11:34 -15.35009 28.23548 6399 ft 245 kts 16°
2026-05-09 11:34 -15.33394 28.23992 6147 ft 240 kts 19°
2026-05-09 11:34 -15.31848 28.24647 5937 ft 233 kts 34°
2026-05-09 11:35 -15.30860 28.25867 5730 ft 226 kts 70°
2026-05-09 11:35 -15.30787 28.27452 5495 ft 220 kts 101°
2026-05-09 11:35 -15.31167 28.28956 5375 ft 213 kts 104°
2026-05-09 11:35 -15.31532 28.30417 5337 ft 205 kts 104°
2026-05-09 11:36 -15.31857 28.31828 5325 ft 195 kts 102°
2026-05-09 11:36 -15.32160 28.33077 5331 ft 163 kts 103°
2026-05-09 11:36 -15.32416 28.34157 5351 ft 147 kts 100°
2026-05-09 11:36 -15.32464 28.35163 5347 ft 133 kts 88°
2026-05-09 11:37 -15.32458 28.36075 5241 ft 119 kts 88°
2026-05-09 11:37 -15.32367 28.36863 5103 ft 106 kts 78°
2026-05-09 11:37 -15.32360 28.37665 5001 ft 124 kts 90°
2026-05-09 11:37 -15.32450 28.38584 4944 ft 128 kts 98°
2026-05-09 11:38 -15.32588 28.39493 4742 ft 127 kts 95°
2026-05-09 11:38 -15.32654 28.40405 4526 ft 125 kts 91°
2026-05-09 11:38 -15.32693 28.41293 4213 ft 120 kts 95°
2026-05-09 11:38 -15.32790 28.42151 4102 ft 119 kts 98°
2026-05-09 11:39 -15.32876 28.43023 3894 ft 119 kts 98°
2026-05-09 11:39 -15.32953 28.43824 3776 ft 106 kts 97°
2026-05-09 11:39 -15.33007 28.44361 3768 ft 32 kts 93°
2026-05-09 11:40 -15.32950 28.44445 3775 ft 7 kts 324°
2026-05-09 11:40 -15.32900 28.44404 3769 ft 11 kts 325°
2026-05-09 11:40 -15.32847 28.44419 3781 ft 6 kts 58°
2026-05-09 11:40 -15.32824 28.44454 3773 ft 6 kts 54°
2026-05-09 11:41 -15.32795 28.44486 3770 ft 6 kts 45°
2026-05-09 11:41 -15.32763 28.44522 3775 ft 7 kts 51°
2026-05-09 11:41 -15.32732 28.44562 3770 ft 7 kts 49°
2026-05-09 11:41 -15.32686 28.44591 3773 ft 8 kts 21°
2026-05-09 11:42 -15.32632 28.44618 3770 ft 9 kts 50°
2026-05-09 11:42 -15.32627 28.44668 3774 ft 6 kts 92°
2026-05-09 11:42 -15.32632 28.44706 3770 ft 4 kts 114°
2026-05-09 11:42 -15.32641 28.44729 3773 ft 3 kts 109°
2026-05-09 11:43 -15.32646 28.44735 3772 ft 0 kts 135°
2026-05-09 11:43 -15.32652 28.44740 3773 ft 0 kts 142°